TimeEDT,TemperatureF,Dew PointF,Humidity,Sea Level PressureIn,VisibilityMPH,Wind Direction,Wind SpeedMPH,Gust SpeedMPH,PrecipitationIn,Events,Conditions,WindDirDegrees,DateUTC
12:51 AM,37.0,33.1,86,30.22,10.0,South,5.8,-,N/A,,Clear,170,2011-10-06 04:51:00
1:51 AM,35.1,33.1,92,30.24,10.0,Calm,Calm,-,N/A,,Clear,0,2011-10-06 05:51:00
2:51 AM,32.0,30.0,92,30.23,10.0,Calm,Calm,-,N/A,,Clear,0,2011-10-06 06:51:00
3:51 AM,30.9,30.0,96,30.24,10.0,Calm,Calm,-,N/A,,Clear,0,2011-10-06 07:51:00
4:51 AM,39.0,28.9,67,30.24,10.0,West,11.5,16.1,N/A,,Clear,280,2011-10-06 08:51:00
5:51 AM,39.0,27.0,62,30.26,10.0,WNW,5.8,-,N/A,,Clear,290,2011-10-06 09:51:00
6:51 AM,37.0,26.1,65,30.27,10.0,North,5.8,-,N/A,,Clear,350,2011-10-06 10:51:00
7:51 AM,42.1,27.0,55,30.29,10.0,Calm,Calm,-,N/A,,Clear,0,2011-10-06 11:51:00
8:51 AM,44.1,28.0,53,30.30,10.0,WNW,3.5,-,N/A,,Clear,300,2011-10-06 12:51:00
9:51 AM,48.9,28.0,44,30.30,10.0,NNW,10.4,-,N/A,,Clear,330,2011-10-06 13:51:00
10:51 AM,51.1,25.0,36,30.28,10.0,NW,17.3,25.3,N/A,,Clear,310,2011-10-06 14:51:00
11:51 AM,54.0,21.9,29,30.27,10.0,NNW,19.6,28.8,N/A,,Clear,330,2011-10-06 15:51:00
12:51 PM,55.9,21.9,27,30.26,10.0,NW,16.1,23.0,N/A,,Clear,320,2011-10-06 16:51:00
1:51 PM,57.9,21.0,24,30.24,10.0,NW,17.3,24.2,N/A,,Clear,320,2011-10-06 17:51:00
2:51 PM,59.0,21.9,24,30.23,10.0,NNW,16.1,24.2,N/A,,Clear,330,2011-10-06 18:51:00
3:51 PM,57.9,21.0,24,30.22,10.0,NW,16.1,25.3,N/A,,Clear,310,2011-10-06 19:51:00
4:51 PM,57.0,21.0,25,30.22,10.0,NW,17.3,25.3,N/A,,Clear,320,2011-10-06 20:51:00
5:51 PM,54.0,24.1,31,30.25,10.0,NW,3.5,-,N/A,,Clear,320,2011-10-06 21:51:00
6:51 PM,50.0,25.0,38,30.27,10.0,WNW,5.8,-,N/A,,Clear,300,2011-10-06 22:51:00
7:51 PM,45.0,28.9,53,30.30,10.0,Calm,Calm,-,N/A,,Clear,0,2011-10-06 23:51:00
8:51 PM,46.0,28.0,50,30.34,10.0,Variable,3.5,-,N/A,,Clear,0,2011-10-07 00:51:00
9:51 PM,43.0,28.9,58,30.36,10.0,North,4.6,-,N/A,,Clear,10,2011-10-07 01:51:00
10:51 PM,37.9,30.0,73,30.37,10.0,NNE,4.6,-,N/A,,Clear,20,2011-10-07 02:51:00
11:51 PM,35.1,30.0,82,30.37,10.0,Calm,Calm,-,N/A,,Clear,0,2011-10-07 03:51:00